Location: Campillo
(40.8621°N, 4.2488°W)
Time: 09:16:16
(UTC+00:00)

Cosmos 1633 Rocket - Pass Details

Date: 21 September 2021
Orbit: 608 x 623 km, 82.5° (Epoch: 15 October)

Event Time Altitude Azimuth Distance (km) Brightness Sun altitude
Rises 04:16:12 0° 349° (N) 2,912 6.6 -20.7°
Reaches altitude 10° 04:18:27 10° 347° (NNW) 2,001 5.7 -20.3°
Maximum altitude 04:22:51 68° 265° (W) 672 2.9 -19.5°
Drops below altitude 10° 04:27:13 10° 183° (S) 1,981 5.4 -18.7°
Sets 04:29:26 0° 180° (S) 2,880 6.3 -18.3°
